Weather History for Benson, MN

Change the Weather History Date:

Saturday, December 7, 2013

  Actual Average Record
Temperature  
Mean Temperature -10 °F -  
Max Temperature -2 °F 27 °F 50 °F (1965)
Min Temperature -18 °F 10 °F -20 °F (1972)
Degree Days  
Heating Degree Days 75    
Moisture  
Dew Point -15 °F    
Average Humidity 76    
Maximum Humidity 84    
Minimum Humidity 60    
Precipitation  
Precipitation 0.00 in - - ()
Sea Level Pressure  
Sea Level Pressure 30.59 in    
Wind  
Wind Speed 5 mph (West)    
Max Wind Speed 10 mph    
Max Gust Speed -    
Visibility 10 miles    
Events Snow    
Averages and records for this station are not official NWS values.
T = Trace of Precipitation, MM = Missing Value Source: NWS Daily Summary

Daily Weather History Graph

Daily Weather History Graph

Search for Another Location

Airport:

Trip Planner

Search our weather history database for the weather conditions in past years. The results will help you decide how hot, cold, wet, or windy it might be!

Date:

Astronomy

Dec. 07, 2013 Rise Set
Actual Time 7:48 AM CST 4:39 PM CST
Civil Twilight 7:14 AM CST 5:13 PM CST
Nautical Twilight 6:37 AM CST 5:50 PM CST
Astronomical Twilight 6:01 AM CST 6:26 PM CST
Moon 11:24 AM CST (12/7) 10:34 PM CST (12/7)
Length of Visible Light 9h 58m
Length of Day
8h 51m
Waxing Crescent, 29% of the Moon is Illuminated
Dec 7
Waxing Crescent
Dec 9
First Quarter
Dec 17
Full
Dec 25
Last Quarter
Jan 1
New

Hourly Weather History & Observations

Time (CST) Temp. Windchill Dew Point Humidity Pressure Visibility Wind Dir Wind Speed Gust Speed Precip Events Conditions
12:12 AM -13.0 °F -27.0 °F -18.4 °F 77% 30.62 in 10.0 mi WNW 5.8 mph - N/A   Clear
12:32 AM -14.8 °F -30.8 °F -18.4 °F 84% 30.62 in 10.0 mi NW 6.9 mph - N/A   Clear
12:53 AM -14.8 °F -30.8 °F -18.4 °F 84% 30.62 in 10.0 mi NW 6.9 mph - N/A   Clear
1:12 AM -14.8 °F -29.1 °F -18.4 °F 84% 30.62 in 10.0 mi WNW 5.8 mph - N/A   Clear
1:32 AM -14.8 °F -30.8 °F -20.2 °F 77% 30.62 in 10.0 mi WNW 6.9 mph - N/A   Clear
1:53 AM -14.8 °F -30.8 °F -20.2 °F 77% 30.62 in 10.0 mi NW 6.9 mph - N/A   Clear
2:13 AM -14.8 °F -33.5 °F -20.2 °F 77% 30.62 in 10.0 mi NW 9.2 mph - N/A   Clear
2:32 AM -14.8 °F -34.6 °F -18.4 °F 84% 30.62 in 10.0 mi NW 10.4 mph - N/A   Clear
2:53 AM -13.0 °F -31.3 °F -18.4 °F 77% 30.62 in 10.0 mi NW 9.2 mph - N/A   Clear
3:13 AM -11.2 °F -30.1 °F -18.4 °F 70% 30.63 in 10.0 mi NW 10.4 mph - N/A   Clear
3:32 AM -13.0 °F -32.4 °F -18.4 °F 77% 30.63 in 10.0 mi NW 10.4 mph - N/A   Clear
3:53 AM -13.0 °F -30.0 °F -18.4 °F 77% 30.63 in 10.0 mi WNW 8.1 mph - N/A   Clear
4:13 AM -14.8 °F -29.1 °F -20.2 °F 77% 30.63 in 10.0 mi WNW 5.8 mph - N/A   Clear
4:32 AM -14.8 °F -27.2 °F -20.2 °F 77% 30.62 in 10.0 mi WNW 4.6 mph - N/A   Clear
4:53 AM -16.6 °F -32.9 °F -20.2 °F 84% 30.62 in 10.0 mi NW 6.9 mph - N/A   Clear
5:13 AM -16.6 °F -31.3 °F -22.0 °F 76% 30.62 in 10.0 mi WNW 5.8 mph - N/A   Clear
5:32 AM -16.6 °F -29.3 °F -22.0 °F 76% 30.62 in 10.0 mi WNW 4.6 mph - N/A   Clear
5:53 AM -16.6 °F -26.8 °F -22.0 °F 76% 30.62 in 10.0 mi West 3.5 mph - N/A   Clear
6:13 AM -18.4 °F -28.9 °F -23.8 °F 76% 30.62 in 10.0 mi WNW 3.5 mph - N/A   Clear
6:32 AM -16.6 °F -29.3 °F -23.8 °F 70% 30.62 in 10.0 mi WNW 4.6 mph - N/A   Clear
6:53 AM -18.4 °F -31.4 °F -23.8 °F 76% 30.63 in 10.0 mi West 4.6 mph - N/A   Clear
7:13 AM -16.6 °F -31.3 °F -22.0 °F 76% 30.64 in 10.0 mi West 5.8 mph - N/A   Clear
7:32 AM -16.6 °F -34.4 °F -22.0 °F 76% 30.63 in 10.0 mi West 8.1 mph - N/A   Clear
7:53 AM -16.6 °F -29.3 °F -20.2 °F 84% 30.63 in 10.0 mi West 4.6 mph - N/A   Clear
8:13 AM -16.6 °F -31.3 °F -20.2 °F 84% 30.63 in 10.0 mi West 5.8 mph - N/A   Clear
8:32 AM -14.8 °F -29.1 °F -20.2 °F 77% 30.63 in 10.0 mi West 5.8 mph - N/A   Clear
8:53 AM -13.0 °F -25.1 °F -18.4 °F 77% 30.64 in 10.0 mi West 4.6 mph - N/A   Clear
9:12 AM -11.2 °F -23.0 °F -16.6 °F 77% 30.64 in 10.0 mi West 4.6 mph - N/A   Clear
9:32 AM -9.4 °F -20.9 °F -16.6 °F 71% 30.64 in 10.0 mi West 4.6 mph - N/A   Clear
9:53 AM -9.4 °F -25.6 °F -14.8 °F 77% 30.65 in 10.0 mi West 8.1 mph - N/A   Clear
10:12 AM -9.4 °F -24.3 °F -14.8 °F 77% 30.65 in 10.0 mi WSW 6.9 mph - N/A   Clear
10:33 AM -7.6 °F -20.6 °F -14.8 °F 71% 30.65 in 10.0 mi West 5.8 mph - N/A   Clear
10:52 AM -7.6 °F -18.8 °F -14.8 °F 71% 30.65 in 10.0 mi WSW 4.6 mph - N/A   Clear
11:12 AM -5.8 °F -16.7 °F -13.0 °F 71% 30.65 in 10.0 mi WSW 4.6 mph - N/A   Clear
11:33 AM -5.8 °F -19.9 °F -14.8 °F 65% 30.64 in 10.0 mi West 6.9 mph - N/A   Clear
11:52 AM -5.8 °F -21.2 °F -13.0 °F 71% 30.63 in 10.0 mi West 8.1 mph - N/A   Clear
12:12 PM -4.0 °F -20.2 °F -11.2 °F 71% 30.63 in 10.0 mi West 9.2 mph - N/A   Clear
12:33 PM -2.2 °F -16.8 °F -11.2 °F 66% 30.62 in 10.0 mi WNW 8.1 mph - N/A   Clear
12:52 PM -2.2 °F -18.0 °F -11.2 °F 66% 30.62 in 10.0 mi NW 9.2 mph - N/A   Clear
1:12 PM -2.2 °F -15.6 °F -11.2 °F 66% 30.62 in 10.0 mi WNW 6.9 mph - N/A   Clear
1:33 PM -2.2 °F -12.5 °F -13.0 °F 60% 30.62 in 10.0 mi WNW 4.6 mph - N/A   Clear
1:52 PM -2.2 °F -15.6 °F -13.0 °F 60% 30.61 in 10.0 mi WNW 6.9 mph - N/A   Scattered Clouds
2:13 PM -2.2 °F -12.5 °F -11.2 °F 66% 30.60 in 10.0 mi WNW 4.6 mph - N/A Snow Light Snow
2:32 PM -2.2 °F - -11.2 °F 66% 30.59 in 10.0 mi Calm Calm - N/A Snow Light Snow
2:52 PM -2.2 °F -12.5 °F -11.2 °F 66% 30.58 in 10.0 mi NNW 4.6 mph - N/A Snow Light Snow
3:13 PM -2.2 °F -14.2 °F -11.2 °F 66% 30.58 in 10.0 mi NW 5.8 mph - N/A   Scattered Clouds
3:32 PM -2.2 °F - -11.2 °F 66% 30.59 in 5.0 mi Calm Calm - N/A Snow Light Snow
3:52 PM -2.2 °F - -11.2 °F 66% 30.58 in 10.0 mi Calm Calm - N/A Snow Light Snow
4:12 PM -2.2 °F - -9.4 °F 71% 30.58 in 3.0 mi Calm Calm - N/A Snow Light Snow
4:32 PM -2.2 °F - -9.4 °F 71% 30.57 in 5.0 mi Calm Calm - N/A Snow Light Snow
4:53 PM -4.0 °F - -9.4 °F 78% 30.56 in 7.0 mi Calm Calm - N/A Snow Light Snow
5:12 PM -4.0 °F - -9.4 °F 78% 30.56 in 7.0 mi Calm Calm - N/A Snow Light Snow
5:32 PM -5.8 °F - -9.4 °F 84% 30.56 in 10.0 mi Calm Calm - N/A Snow Light Snow
5:52 PM -5.8 °F - -9.4 °F 84% 30.55 in 7.0 mi Calm Calm - N/A Snow Light Snow
6:12 PM -5.8 °F - -9.4 °F 84% 30.55 in 10.0 mi Calm Calm - N/A   Scattered Clouds
6:33 PM -7.6 °F - -11.2 °F 84% 30.55 in 10.0 mi Calm Calm - N/A   Clear
6:52 PM -7.6 °F - -11.2 °F 84% 30.54 in 10.0 mi Calm Calm - N/A   Clear
7:12 PM -9.4 °F -18.6 °F -13.0 °F 84% 30.53 in 10.0 mi ESE 3.5 mph - N/A   Clear
7:33 PM -9.4 °F - -13.0 °F 84% 30.53 in 10.0 mi Calm Calm - N/A   Clear
7:52 PM -7.6 °F - -11.2 °F 84% 30.52 in 10.0 mi Calm Calm - N/A   Clear
8:13 PM -9.4 °F - -14.8 °F 77% 30.52 in 10.0 mi Calm Calm - N/A   Clear
8:33 PM -9.4 °F -20.9 °F -14.8 °F 77% 30.51 in 10.0 mi South 4.6 mph - N/A   Clear
8:52 PM -9.4 °F -18.6 °F -13.0 °F 84% 30.51 in 10.0 mi South 3.5 mph - N/A   Clear
9:13 PM -9.4 °F -20.9 °F -13.0 °F 84% 30.50 in 10.0 mi SSW 4.6 mph - N/A   Clear
9:33 PM -9.4 °F -20.9 °F -14.8 °F 77% 30.50 in 10.0 mi SSW 4.6 mph - N/A   Clear
9:52 PM -9.4 °F -18.6 °F -14.8 °F 77% 30.49 in 10.0 mi SW 3.5 mph - N/A   Clear
10:13 PM -9.4 °F -18.6 °F -14.8 °F 77% 30.50 in 10.0 mi South 3.5 mph - N/A   Clear
10:33 PM -9.4 °F -20.9 °F -14.8 °F 77% 30.49 in 10.0 mi South 4.6 mph - N/A   Scattered Clouds
10:52 PM -9.4 °F -18.6 °F -14.8 °F 77% 30.49 in 10.0 mi South 3.5 mph - N/A   Scattered Clouds
11:13 PM -9.4 °F -18.6 °F -14.8 °F 77% 30.49 in 10.0 mi South 3.5 mph - N/A   Mostly Cloudy
11:32 PM -9.4 °F -18.6 °F -14.8 °F 77% 30.48 in 10.0 mi South 3.5 mph - N/A   Overcast
11:52 PM -9.4 °F - -13.0 °F 84% 30.48 in 10.0 mi Calm Calm - N/A   Overcast